STARLINK-32264, 61642

Orbit data source: Space-Track

STARLINK-32264, 61642 is a payload satellite owned by SpaceX/Seattle (US) in LEO that was launched on Wed, 23 Oct 2024 UTC via an FALCON 9 launch vehicle from the Air Force Eastern Test Range (AFETR). Payload-class satellites include a variety of spacecraft equipped with specific instruments for various scientific and technological missions. These include communications satellites like Starlink; space stations such as the ISS; scientific satellites like the Hubble; Earth observation satellites from companies like Planet Labs, Umbra, and HawkEye 360; GPS; miniature CubeSats for education and research; and military/defense satellites.

Loading next visibility...
Identifier
61642, 2024-191X
Orbit
LEO
Country
Flag of USUS
Related business
Manufacturer
SpaceX/Seattle
Mission
Partially operational Commercial Communications
Bus & Motor
STARLINK V2M, Unknown motor
Mass
730 kg wet, ~700 kg dry
Launch date (UTC)
2024-10-23 (2 years ago)
Launch vehicle
FALCON 9
Launch site
Air Force Eastern Test Range (AFETR)
Object type
Payload
Rocket body
Debris
Shape & HBR
Box + 2 Pan, 17.7 m
Radar Cross Section
33.884 m², Large (>1 m²)

Expand to show TLE details & history
Last TLE update: 7 hours ago

TLE from 7 hours ago
0 STARLINK-32264
1 61642U 24191X   26122.92973669  .00133710  00000-0  28151-2 0  9994
2 61642  42.9932 206.2777 0013483  34.9682 325.2059 15.43988702 85851
Epoch: 2026-05-02T22:18Z
TLE epoch observation values (Epoch: 2026-05-02T22:18:49.250Z)
Latitude
0.00002°
Longitude
10.73193°
Altitude
426.586 km
Speed
7.662 km/s
True Right ascension
13h 45m 06s
True Declination
0° 00' 00"
Sunlit
Object was in full shadow at epoch
Visualization orbit readout
Latitude
Unknown
Longitude
Unknown
Altitude
Unknown
Speed
Unknown
Apparent Right ascension
Unknown
Apparent Declination
Unknown
Sunlit
N/A
Visualization observer readout
Local Sidereal Time
12:37:21
Azimuth
Unknown
Elevation
Unknown
Doppler factor
Unknown
Orbital elements
Apogee altitude
445.499 km
Perigee altitude
427.123 km
Semi-major axis
6,814.448 km
Eccentricity
0.00135
Inclination
42.9932°
RAAN
206.2777°
Arg. of periapsis
34.9682°
True anomaly
325.11761°
Mean anomaly
325.2059°
Eccentric anomaly
325.16177°
Mean motion
3.85831 °/min
Orbital period
93.31 mins
BSTAR
0.0028151
Loading maneuver chart data...
Computing Atmospheric mass density...
Loading historical data...
Loading historical data...
Loading historical data...
Loading historical data...
Loading historical data...
Loading historical data...
Loading historical data...

Documentation

Showing up to 5 results
|